Location: Byszew
(52.1813°N, 19.2693°E)
Time: 00:49:46
(UTC+00:00)

Cosmos 1777 Rocket - Visible Passes

Search period start: 03 October 2022 00:00
Search period end: 13 October 2022 00:00
Orbit: 759 x 774 km, 74.0° (Epoch: 02 October)

Date Brightness Start Highest point End Pass type
(mag) Time Alt. Az. Time Alt. Az. Time Alt. Az.
03 Oct 7.0 02:29:16 10° NNE 02:30:06 10° NNE 02:30:55 10° NE visible
03 Oct 5.8 04:09:08 10° NNW 04:13:52 34° NE 04:18:36 10° ESE visible
03 Oct 6.4 20:42:55 15° NNE 20:42:55 15° NNE 20:43:52 10° NNE visible
03 Oct 6.7 22:23:08 14° NNW 22:23:08 14° NNW 22:24:51 10° N visible
04 Oct 6.3 03:31:50 10° N 03:36:03 24° NE 03:40:15 10° E visible
04 Oct 6.4 20:05:52 13° NNE 20:05:52 13° NNE 20:06:25 10° NNE visible
04 Oct 6.6 21:46:05 16° NNW 21:46:05 16° NNW 21:47:47 10° N visible
05 Oct 6.7 02:54:38 10° N 02:58:07 18° NE 03:01:37 10° E visible
05 Oct 6.5 19:28:46 10° NNE 19:28:46 10° NNE 19:28:51 10° NNE visible
05 Oct 6.5 21:08:59 17° N 21:08:59 17° N 21:10:34 10° N visible
06 Oct 6.8 02:17:39 10° N 02:20:07 13° NNE 02:22:34 10° ENE visible
06 Oct 5.1 03:58:29 10° NNW 04:03:32 47° ENE 04:08:34 10° SE visible
06 Oct 6.3 20:31:49 18° N 20:31:49 18° N 20:33:15 10° NNE visible
06 Oct 6.9 22:12:01 11° NNW 22:12:04 11° NNW 22:13:35 10° NNW visible
07 Oct 7.1 01:41:48 10° NNE 01:42:00 10° NNE 01:42:11 10° NNE visible
07 Oct 5.8 03:21:07 10° NNW 03:25:49 32° NE 03:30:30 10° ESE visible
07 Oct 6.1 19:54:32 18° NNE 19:54:32 18° NNE 19:55:52 10° NNE visible
07 Oct 6.7 21:34:44 14° NNW 21:34:44 14° NNW 21:36:54 10° N visible
08 Oct 6.3 02:43:50 10° N 02:47:59 23° NE 02:52:07 10° E visible
08 Oct6.617:36:53NE17:36:53NE17:25:50SSEvisible
08 Oct 5.9 19:17:03 18° NNE 19:17:03 18° NNE 19:18:23 10° NNE visible
08 Oct 6.4 20:57:13 18° NNW 20:57:13 18° NNW 20:59:48 10° N visible
09 Oct 6.7 02:06:39 10° N 02:10:03 17° NE 02:13:26 10° E visible
09 Oct 4.4 03:47:54 10° NNW 03:53:07 68° ENE 03:58:20 10° SE visible
09 Oct6.016:58:50NE16:58:50NE16:52:35ESEvisible
09 Oct 5.0 18:30:32 10° S 18:38:55 23° NE 18:40:49 10° NNE visible
09 Oct 5.9 20:18:58 26° NNW 20:18:58 26° NNW 20:22:34 10° N visible
10 Oct 6.9 01:29:42 10° N 01:32:01 13° NNE 01:34:19 10° ENE visible
10 Oct 5.2 03:10:28 10° NNW 03:15:29 45° ENE 03:20:30 10° SE visible
10 Oct 4.3 17:53:27 10° S 17:58:17 40° ESE 18:03:08 10° NE visible
10 Oct 5.2 19:35:29 10° WSW 19:40:21 39° NW 19:45:14 10° NNE visible
10 Oct 7.0 21:22:14 10° NW 21:23:58 11° NNW 21:25:42 10° N visible
11 Oct 5.8 02:33:06 10° NNW 02:37:45 31° NE 02:42:22 10° ESE visible
11 Oct 4.1 04:14:59 10° NNW 04:20:05 54° WSW 04:25:10 10° S visible
11 Oct 4.9 17:16:46 10° SSE 17:20:59 26° E 17:25:14 10° NE visible
11 Oct 4.5 18:57:33 10° SW 19:02:40 58° WNW 19:07:50 10° NNE visible
11 Oct 6.7 20:42:53 10° WNW 20:45:53 15° NW 20:48:55 10° N visible
12 Oct 6.3 01:55:50 10° N 01:59:55 22° NE 02:03:58 10° E visible
12 Oct 3.9 03:37:22 10° NNW 03:42:38 84° WSW 03:47:52 10° SSE visible
12 Oct 5.4 16:40:39 10° SE 16:43:48 16° E 16:46:58 10° ENE visible
12 Oct 3.9 18:19:54 10° SSW 18:25:06 88° WNW 18:30:21 10° NNE visible
12 Oct 6.3 20:04:04 10° W 20:07:55 21° NW 20:11:49 10° N visible
